Mpanda Airport

Jump to: basic info | weather | comments

Related pages: nearby airports | nearby navaids | notams | map

Basic information (top)

Codes: HTMP
Location: lon -6.350000, lat 31.083000, elev 3,520 ft / 1,073 m msl
Status: small_airport

Weather (top)

Current conditions for Sumbawanga Airport 103nm (191km) SSE (rec'd 2014/08/28 10:00Z):

HTSU 281000Z 16005KT 9999 SCT020 26/08 Q1021

Airport forecast for Julius Nyerere International Airport 485nm (899km) E (rec'd 2014/08/28 06:00Z):

TAF HTDA 280400Z 2806/2912 22005KT 9999 SCT023 BKN070 
      BECMG 2809/2812 16010KT BKN027 FM 281500 22005KT FEW022 
      BECMG 2906/2912 15010KT BKN026

Latest comments (top)

re: Uwanja wa ndege Mpanda: Thanks God Mpanda is on the right path, ... [read]

Uwanja wa ndege Mpanda: Uwanja ni mzuri saana, [read]

matengenezo: uwanja ukikamilika utakuwa mzuri.mmejitahidi. [read]

More... (top)

See also NOTAMs and nearby airports and navaids, or visit the Mpanda Airport page at the main OurAirports website..